Location: Madrid
(40.4000°N, 3.6830°W)
Time: 13:08:08
(UTC+01:00)

ISS - Pass Details

Date: 03 December 2019
Orbit: 411 x 421 km, 51.6° (Epoch: 11 December)

Event Time Altitude Azimuth Distance (km) Brightness Sun altitude
Rises 19:11:26 0° 310° (NW) 2,360 0.6 -15.4°
Reaches altitude 10° 19:14:21 10° 337° (NNW) 1,498 -0.9 -15.9°
Enters shadow 19:16:02 14° 7° (N) 1,292 -1.5 -16.2°
